Litchfield, IL

10:19 AM CST on November 21, 2017 (GMT -0600)
Litchfield

Weather History for K3LF - October, 2012

Change the Weather History Date:

Wednesday, October 3, 2012

  Actual Average (KALN) Record (KALN)
Temperature  
Mean Temperature 66 °F -  
Max Temperature 76 °F 71 °F 95 °F (2006)
Min Temperature 57 °F 48 °F 35 °F (2003)
Cooling Degree Days 2    
Growing Degree Days 16 (Base 50)    
Moisture  
Dew Point 53 °F    
Average Humidity 69    
Maximum Humidity 91    
Minimum Humidity 37    
Precipitation  
Precipitation 0.00 in - - ()
Sea Level Pressure  
Sea Level Pressure 29.98 in    
Wind  
Wind Speed 4 mph (South)    
Max Wind Speed 14 mph    
Max Gust Speed 18 mph    
Visibility 10 miles    
Events      
Averages and records for this station are not official NWS values.
T = Trace of Precipitation, MM = Missing Value Source: NWS Daily Summary

Daily Weather History Graph

Daily Weather History Graph

Search for Another Location

Airport or City:

Trip Planner

Search our weather history database for the weather conditions in past years. The results will help you decide how hot, cold, wet, or windy it might be!

Date:

Astronomy

Oct. 03, 2012 Rise Set
Actual Time 6:57 AM CDT 6:37 PM CDT
Civil Twilight 6:30 AM CDT 7:04 PM CDT
Nautical Twilight 5:59 AM CDT 7:34 PM CDT
Astronomical Twilight 5:28 AM CDT 8:06 PM CDT
Moon 8:31 PM CDT (10/3) 10:18 AM CDT (10/3)
Length of Visible Light 12h 33m
Length of Day
11h 40m
Waning Gibbous, 88% of the Moon is Illuminated
Oct 3
Waning Gibbous
Oct 8
Last Quarter
Oct 15
New
Oct 21
First Quarter
Oct 29
Full

Hourly Weather History & Observations

Time (CDT) Temp. Dew Point Humidity Pressure Visibility Wind Dir Wind Speed Gust Speed Precip Events Conditions
12:15 AM 57.4 °F 54.0 °F 88% 29.90 in 10.0 mi Calm Calm - N/A   Overcast
12:35 AM 57.4 °F 54.0 °F 88% 29.89 in 10.0 mi SW 3.5 mph - N/A   Overcast
12:55 AM 57.2 °F 54.0 °F 89% 29.90 in 10.0 mi Calm Calm - N/A   Overcast
1:15 AM 57.2 °F 54.1 °F 89% 29.90 in 10.0 mi Calm Calm - N/A   Overcast
1:35 AM 57.2 °F 54.3 °F 90% 29.91 in 10.0 mi Calm Calm - N/A   Overcast
1:55 AM 57.2 °F 54.1 °F 89% 29.91 in 10.0 mi SSW 4.6 mph - N/A   Overcast
2:15 AM 57.6 °F 54.3 °F 89% 29.91 in 10.0 mi SSW 3.5 mph - N/A   Overcast
2:35 AM 57.2 °F 54.0 °F 89% 29.91 in 10.0 mi Calm Calm - N/A   Overcast
2:55 AM 57.2 °F 54.0 °F 89% 29.92 in 10.0 mi SSW 3.5 mph - N/A   Overcast
3:15 AM 57.2 °F 54.0 °F 89% 29.92 in 10.0 mi South 3.5 mph - N/A   Overcast
3:35 AM 57.2 °F 54.0 °F 89% 29.92 in 10.0 mi Calm Calm - N/A   Overcast
3:55 AM 57.2 °F 53.8 °F 88% 29.92 in 10.0 mi South 3.5 mph - N/A   Overcast
4:15 AM 57.2 °F 53.8 °F 88% 29.93 in 10.0 mi SSE 3.5 mph - N/A   Overcast
4:35 AM 57.2 °F 53.8 °F 88% 29.94 in 10.0 mi South 5.8 mph - N/A   Overcast
4:55 AM 57.2 °F 54.0 °F 89% 29.94 in 10.0 mi Calm Calm - N/A   Overcast
5:15 AM 57.2 °F 54.0 °F 89% 29.95 in 10.0 mi Calm Calm - N/A   Overcast
5:35 AM 57.2 °F 54.0 °F 89% 29.95 in 10.0 mi Calm Calm - N/A   Overcast
5:55 AM 57.2 °F 54.1 °F 89% 29.95 in 10.0 mi Calm Calm - N/A   Overcast
6:35 AM 57.2 °F 54.1 °F 89% 29.96 in 10.0 mi East 4.6 mph - N/A   Overcast
6:55 AM 57.2 °F 54.1 °F 89% 29.96 in 10.0 mi ESE 3.5 mph - N/A   Overcast
7:15 AM 57.2 °F 54.5 °F 91% 29.97 in 10.0 mi Calm Calm - N/A   Overcast
7:35 AM 57.2 °F 54.5 °F 91% 29.98 in 7.0 mi ENE 4.6 mph - N/A   Overcast
7:55 AM 57.7 °F 54.7 °F 90% 29.99 in 10.0 mi East 3.5 mph - N/A   Overcast
8:15 AM 58.5 °F 54.9 °F 88% 29.98 in 10.0 mi SSE 4.6 mph - N/A   Overcast
8:35 AM 59.2 °F 55.0 °F 86% 29.99 in 10.0 mi SSE 4.6 mph - N/A   Overcast
8:55 AM 60.4 °F 55.2 °F 83% 29.99 in 10.0 mi SE 5.8 mph - N/A   Overcast
9:15 AM 61.2 °F 54.9 °F 80% 29.99 in 10.0 mi SSE 6.9 mph - N/A   Mostly Cloudy
9:35 AM 63.5 °F 54.3 °F 72% 30.00 in 10.0 mi SSW 4.6 mph - N/A   Overcast
10:15 AM 66.7 °F 53.1 °F 61% 30.00 in 10.0 mi SSW 8.1 mph - N/A   Overcast
10:35 AM 66.2 °F 52.7 °F 62% 30.00 in 10.0 mi SSW 5.8 mph - N/A   Overcast
10:55 AM 67.3 °F 52.9 °F 60% 30.00 in 10.0 mi SSW 8.1 mph - N/A   Overcast
11:15 AM 68.4 °F 51.8 °F 55% 30.00 in 10.0 mi SSW 5.8 mph - N/A   Overcast
11:35 AM 69.4 °F 51.3 °F 52% 30.00 in 10.0 mi SSW 9.2 mph - N/A   Overcast
11:55 AM 70.5 °F 50.5 °F 49% 30.01 in 10.0 mi SSW 9.2 mph - N/A   Overcast
12:15 PM 71.4 °F 50.5 °F 48% 30.00 in 10.0 mi SSW 8.1 mph - N/A   Overcast
12:35 PM 72.7 °F 49.3 °F 44% 29.99 in 10.0 mi SW 10.4 mph - N/A   Mostly Cloudy
12:55 PM 72.9 °F 49.5 °F 44% 29.99 in 10.0 mi SSW 9.2 mph - N/A   Scattered Clouds
1:15 PM 72.3 °F 50.9 °F 47% 29.98 in 10.0 mi WSW 8.1 mph - N/A   Clear
1:35 PM 73.6 °F 51.1 °F 45% 29.98 in 10.0 mi WSW 8.1 mph 18.4 mph N/A   Scattered Clouds
1:55 PM 73.8 °F 48.4 °F 41% 29.97 in 10.0 mi SW 10.4 mph - N/A   Mostly Cloudy
2:15 PM 73.6 °F 48.9 °F 42% 29.97 in 10.0 mi SW 10.4 mph 16.1 mph N/A   Mostly Cloudy
2:35 PM 72.0 °F 53.1 °F 51% 29.97 in 10.0 mi SSW 10.4 mph - N/A   Overcast
2:55 PM 74.8 °F 49.6 °F 41% 29.97 in 10.0 mi South 13.8 mph 17.3 mph N/A   Mostly Cloudy
3:15 PM 74.7 °F 47.7 °F 38% 29.97 in 10.0 mi SSW 11.5 mph 17.3 mph N/A   Mostly Cloudy
3:35 PM 75.2 °F 48.2 °F 38% 29.97 in 10.0 mi SSW 11.5 mph - N/A   Scattered Clouds
3:55 PM 76.1 °F 48.6 °F 38% 29.97 in 10.0 mi SSW 11.5 mph 17.3 mph N/A   Scattered Clouds
4:15 PM 75.9 °F 48.4 °F 38% 29.97 in 10.0 mi SSW 10.4 mph - N/A   Scattered Clouds
4:35 PM 75.4 °F 47.3 °F 37% 29.98 in 10.0 mi SW 12.7 mph 17.3 mph N/A   Clear
4:55 PM 75.4 °F 47.8 °F 38% 29.98 in 10.0 mi SW 9.2 mph - N/A   Clear
5:15 PM 73.4 °F 50.7 °F 45% 29.98 in 10.0 mi South 8.1 mph - N/A   Scattered Clouds
5:35 PM 72.0 °F 51.3 °F 48% 29.99 in 10.0 mi Calm Calm - N/A   Overcast
5:55 PM 71.6 °F 48.2 °F 43% 29.99 in 10.0 mi WSW 5.8 mph - N/A   Overcast
6:15 PM 69.1 °F 47.8 °F 47% 30.00 in 10.0 mi SW 5.8 mph - N/A   Scattered Clouds
6:35 PM 67.1 °F 48.7 °F 52% 30.00 in 10.0 mi WSW 3.5 mph - N/A   Clear
6:55 PM 63.7 °F 50.5 °F 62% 30.00 in 10.0 mi Calm Calm - N/A   Scattered Clouds
7:15 PM 63.7 °F 50.9 °F 63% 30.00 in 10.0 mi Calm Calm - N/A   Scattered Clouds
7:35 PM 63.7 °F 52.7 °F 67% 30.01 in 10.0 mi Calm Calm - N/A   Mostly Cloudy
7:55 PM 62.1 °F 52.7 °F 71% 30.02 in 10.0 mi SE 3.5 mph - N/A   Scattered Clouds
8:15 PM 62.2 °F 52.3 °F 70% 30.03 in 10.0 mi SSE 5.8 mph - N/A   Mostly Cloudy
8:35 PM 64.0 °F 52.7 °F 67% 30.03 in 10.0 mi South 6.9 mph - N/A   Mostly Cloudy
8:55 PM 63.0 °F 54.0 °F 72% 30.04 in 10.0 mi South 6.9 mph - N/A   Scattered Clouds
9:15 PM 63.5 °F 54.7 °F 73% 30.04 in 10.0 mi South 5.8 mph - N/A   Scattered Clouds
9:35 PM 63.0 °F 55.0 °F 75% 30.04 in 10.0 mi South 5.8 mph - N/A   Scattered Clouds
9:55 PM 63.1 °F 55.4 °F 76% 30.05 in 10.0 mi South 6.9 mph - N/A   Overcast
10:15 PM 62.8 °F 55.8 °F 78% 30.06 in 10.0 mi SSE 6.9 mph - N/A   Overcast
10:35 PM 62.2 °F 55.9 °F 80% 30.06 in 10.0 mi South 5.8 mph - N/A   Overcast
10:55 PM 61.7 °F 56.3 °F 82% 30.06 in 10.0 mi SSE 5.8 mph - N/A   Overcast
11:15 PM 61.7 °F 56.3 °F 82% 30.07 in 10.0 mi SSE 5.8 mph - N/A   Overcast
11:35 PM 61.2 °F 56.3 °F 84% 30.07 in 10.0 mi Calm Calm - N/A   Overcast
11:55 PM 60.8 °F 56.3 °F 85% 30.07 in 10.0 mi SSE 5.8 mph - N/A   Scattered Clouds